654  
ASUS44 KSHV 142210  
RWRSHV  
 
THE FOUR STATE AREA WEATHER ROUNDUP  
NATIONAL WEATHER SERVICE SHREVEPORT LA  
500 PM CDT TUE JUL 14 2020  
 
NOTE: "FAIR" INDICATES FEW OR NO CLOUDS BELOW 12000 FEET  
WITH NO SIGNIFICANT WEATHER AND/OR S TO VISIBILITY
.  
 
!LAZ001-LAZ014-TXZ097-142300  
SHREVEPORT...MONROE...TEXARKANA RADIOS  
 
CITY SKY/WX TMP DP RH WIND PRES REMARKS
 
SHREVEPORT MOSUNNY 94 75 54 S9 29.92R HX 105  
MONROE CLOUDY 94 74 52 S7 29.95S HX 104  
NATCHITOCHES SUNNY 96 74 47 SW6 29.94S HX 107  
TEXARKANA SUNNY 93 71 48 S7 29.91S HX 100  

 
 
!LAZ001-LAZ014-TXZ097-142300  
OTHER LOCATIONS...  
 
CITY SKY/WX TMP DP RH WIND PRES REMARKS
 
DOWNTOWN SHV MOSUNNY 95 71 45 S8 29.91R HX 102  
BOSSIER CITY SUNNY 94 84 73 S13 29.92R HX 122  
RUSTON SUNNY 93 70 46 SE6 29.98S HX 99  
LITTLE ROCK MOSUNNY 92 77 61 SE10 29.93R HX 105  
EL DORADO SUNNY 95 72 47 SE12 29.93S HX 103  
JACKSON PTSUNNY 95 76 53 NW7 29.97R HX 108  
NEW ORLEANS TSTM 89 74 60 SW14 29.97F HX 98  
HOUSTON MOSUNNY 98 70 40 S13 29.91F HX 105  
LUFKIN SUNNY 96 71 44 S8 29.91F HX 103  
TYLER SUNNY 95 71 45 S13 29.89F HX 102  
DAL FT WORTH MOSUNNY 98 70 40 S18G28 29.82S HX 105  

 
 
!TXZ136-TXZ165-142300  
TYLER...LUFKIN RADIOS  
 
CITY SKY/WX TMP DP RH WIND PRES REMARKS
 
TYLER SUNNY 95 71 45 S13 29.89F HX 102  
GILMER CLEAR 93 71 48 S8 29.90S HX 100  
LONGVIEW SUNNY 95 71 45 S7 29.90F HX 102  
LUFKIN SUNNY 96 71 44 S8 29.91F HX 103  

 
 
!TXZ136-TXZ165-142300  
OTHER LOCATIONS...  
 
CITY SKY/WX TMP DP RH WIND PRES REMARKS
 
NACOGDOCHES SUNNY 94 75 54 SE7 29.92F HX 105  
BEAUMONT MOSUNNY 89 77 67 S10 29.95S HX 101  
HOUSTON MOSUNNY 98 70 40 S13 29.91F HX 105  
COLLEGE STN SUNNY 99 67 35 S14G22 29.88F HX 103  
AUSTIN SUNNY 102 63 27 S13 29.86F HX 104  
DAL FT WORTH MOSUNNY 98 70 40 S18G28 29.82S HX 105  
TEXARKANA SUNNY 93 71 48 S7 29.91S HX 100  
SHREVEPORT MOSUNNY 94 75 54 S9 29.92R HX 105  
FORT POLK SUNNY 94 73 50 SE10 29.93S HX 103  
LAKE CHARLES SUNNY 90 73 57 S8 29.96S HX 98  

 
 
 
CLICK HERE TO GO TO PREVIOUS BULLETINS.

The Nexlab LA Page
The Nexlab TX Page
The Nexlab AR Page
The Nexlab OK Page Main Text Page